FLOCK 3P-32 (42023 NORAD) Tracking and Keplerian Element Data

This shows tracking and keplerian element data for the satellite.

Feedback or suggestion? Click here.




ElementValue
Catalog42023
NameFLOCK 3P-32
Epoch Orbit32651
Epoch Day359.09784521
Epoch Year2022
RAAN65.4633
Inclination97.2435
Eccentricity0.0005172
Argument of Perigee275.8054
Mean Anonmoly84.2619
Mean Motion15.70193808
Decay Rate0.00368966
L11 42023U 17008CD 22359.09784521 .00368966 00000+0 29238-2 0 9997
L22 42023 97.2435 65.4633 0005172 275.8054 84.2619 15.70193808326515



Live tracking and technical data element details for FLOCK 3P-32 (NORAD 42023). FLOCK 3P-32 can be tracked NOW for your location showing map with azimuth and elevation plus other details from your city location.







IsCatalogInMostPopularTable: catalog: 42023, numindb: 568
Update: records affected: 1



GetName: 42023 FLOCK 3P-32

Hit Count: updated at: Thu, 15 May 2025 10:26:53 GMT